Find Starlink 32734

NORAD ID: 62476 Int'l Des: 2024-254 Owner: SPXS Country: US Constellation: starlink operational
LEOCIRCULAR

Live-Position

3D-Globus wird geladen...

Über Starlink 32734

Beschreibung wird geladen...

Nächste Überflüge

Passes for default location (London). Set your location on the main map for personalized predictions.

Höhenverlauf

Loading altitude history...

Zweizeiliger Elementsatz

1 62476U 24254Q 26121.99502588 .00027270 00000-0 99687-3 0 9990
2 62476 42.9989 75.4761 0000258 162.1059 197.9802 15.27578995 75801
Epoch: 1. Mai 2026 • Age: 19 hours

Aktueller Status

Höhe 483.1 km
Geschwindigkeit 7.63 km/s
Subsatellitenpunkt 28.36°N, 65.47°E
Startdatum 31. Dez. 2024
Alter 1.3 years
Typ internet

Technische Details

Klassifizierung Payload
Masse 730.00 kg
Trockenmasse 700.00 kg
Gesamtmasse 730.00 kg
Länge 0.30 m
Durchmesser 4.10 m
Spannweite 29.00 m
Form Box + pan
Hersteller SPXS
Bus-Typ Starlink V2M
Phasenstatus In Orbit
Besitzer/Staat SPXS/US

Most Searched